Retour au catalogue

SES 17

ActifCommunicationsGEO
NORAD 49332·PAYLOAD·🇱🇺 Luxembourg

Lancé Oct 24, 2021 depuis Guiana Space Centre

Loading…

TLE

FraisSource: CelesTrak SupGP

Époque: Sep 13, 2026, 23:44 UTC

1 49332C 21095A   26256.98958333 -.00000172  00000+0  00000+0 0  2562
2 49332   0.0383  29.5549 0001330 134.6079 117.9626  1.00274581    19

Suivez SES 17 en temps réel avec AllMySat

Download on the App Store